TimeEDT,TemperatureF,Dew PointF,Humidity,Sea Level PressureIn,VisibilityMPH,Wind Direction,Wind SpeedMPH,Gust SpeedMPH,PrecipitationIn,Events,Conditions,WindDirDegrees,DateUTC
12:15 AM,64.8,60.3,85,29.96,10.0,Calm,Calm,-,N/A,,Overcast,0,2013-07-08 04:15:00
12:35 AM,63.9,60.1,87,29.96,10.0,SW,3.5,-,N/A,,Mostly Cloudy,220,2013-07-08 04:35:00
12:55 AM,63.5,60.1,89,29.96,10.0,SSW,4.6,-,N/A,,Clear,200,2013-07-08 04:55:00
1:15 AM,63.1,59.9,89,29.95,10.0,SW,3.5,-,N/A,,Clear,230,2013-07-08 05:15:00
1:35 AM,62.8,59.9,90,29.95,10.0,Calm,Calm,-,N/A,,Clear,0,2013-07-08 05:35:00
1:55 AM,61.7,60.1,94,29.95,10.0,SSW,3.5,-,N/A,,Clear,210,2013-07-08 05:55:00
2:15 AM,61.2,59.5,94,29.96,7.0,Calm,Calm,-,N/A,,Scattered Clouds,0,2013-07-08 06:15:00
2:35 AM,60.8,59.9,97,29.97,7.0,Calm,Calm,-,N/A,,Overcast,0,2013-07-08 06:35:00
2:55 AM,60.8,59.5,96,29.96,7.0,Calm,Calm,-,N/A,,Mostly Cloudy,0,2013-07-08 06:55:00
3:15 AM,61.0,60.1,97,29.95,7.0,Calm,Calm,-,N/A,,Mostly Cloudy,0,2013-07-08 07:15:00
3:35 AM,60.3,59.5,97,29.95,7.0,Calm,Calm,-,N/A,,Scattered Clouds,0,2013-07-08 07:35:00
3:55 AM,59.4,59.0,99,29.94,5.0,Calm,Calm,-,N/A,,Clear,0,2013-07-08 07:55:00
4:15 AM,59.7,59.2,98,29.93,5.0,Calm,Calm,-,N/A,,Clear,0,2013-07-08 08:15:00
4:35 AM,60.3,59.9,99,29.93,5.0,East,4.6,-,N/A,,Clear,90,2013-07-08 08:35:00
4:55 AM,60.4,59.9,98,29.93,4.0,East,4.6,-,N/A,,Clear,100,2013-07-08 08:55:00
5:15 AM,60.8,60.3,98,29.94,4.0,SSE,3.5,-,N/A,,Clear,160,2013-07-08 09:15:00
5:35 AM,60.8,60.3,98,29.94,4.0,Calm,Calm,-,N/A,,Clear,0,2013-07-08 09:35:00
5:55 AM,60.8,60.3,98,29.96,5.0,SW,3.5,-,N/A,,Scattered Clouds,230,2013-07-08 09:55:00
6:15 AM,62.2,61.3,97,29.96,10.0,SW,9.2,-,N/A,,Mostly Cloudy,220,2013-07-08 10:15:00
6:35 AM,62.8,61.0,94,29.95,10.0,WSW,3.5,-,N/A,,Mostly Cloudy,250,2013-07-08 10:35:00
6:55 AM,62.6,61.2,95,29.96,10.0,WSW,6.9,-,N/A,Rain,Rain,240,2013-07-08 10:55:00
7:15 AM,61.7,61.2,98,29.98,5.0,West,4.6,-,N/A,Rain,Rain,270,2013-07-08 11:15:00
7:35 AM,61.7,61.2,98,29.97,4.0,WSW,5.8,-,N/A,Rain,Rain,240,2013-07-08 11:35:00
7:54 AM,61.2,61.0,99,29.97,4.0,WSW,4.6,-,N/A,Rain,Heavy Rain,240,2013-07-08 11:54:00
8:15 AM,61.0,61.0,100,29.95,2.5,Calm,Calm,-,N/A,Rain,Rain,0,2013-07-08 12:15:00
8:35 AM,61.0,61.0,100,29.95,3.0,North,3.5,-,N/A,Rain,Light Rain,360,2013-07-08 12:35:00
8:55 AM,61.2,61.2,100,29.95,4.0,ENE,3.5,-,N/A,Rain,Light Rain,60,2013-07-08 12:55:00
9:15 AM,61.7,61.7,100,29.95,4.0,East,5.8,-,N/A,Rain,Light Rain,80,2013-07-08 13:15:00
9:35 AM,61.9,61.9,100,29.95,4.0,East,5.8,-,N/A,Rain,Light Rain,100,2013-07-08 13:35:00
9:55 AM,61.9,61.9,100,29.96,4.0,SE,5.8,-,N/A,Rain,Rain,130,2013-07-08 13:55:00
10:15 AM,62.2,62.2,100,29.96,3.0,ESE,8.1,-,N/A,Rain,Rain,120,2013-07-08 14:15:00
10:34 AM,62.8,62.8,100,29.95,5.0,East,11.5,-,N/A,Rain,Light Rain,100,2013-07-08 14:34:00
10:55 AM,64.0,63.9,99,29.94,5.0,East,12.7,-,N/A,Rain,Light Rain,100,2013-07-08 14:55:00
11:15 AM,64.6,64.4,99,29.94,4.0,ESE,11.5,-,N/A,,Overcast,110,2013-07-08 15:15:00
11:35 AM,64.4,64.0,99,29.94,4.0,ESE,11.5,-,N/A,,Overcast,110,2013-07-08 15:35:00
11:55 AM,64.9,64.4,98,29.95,5.0,ENE,5.8,-,N/A,Rain,Light Rain,70,2013-07-08 15:55:00
12:15 PM,64.8,63.9,97,29.95,5.0,Calm,Calm,-,N/A,,Overcast,0,2013-07-08 16:15:00
12:35 PM,65.7,64.8,97,29.96,7.0,NNE,5.8,-,N/A,Rain,Light Rain,30,2013-07-08 16:35:00
12:47 PM,66.9,65.5,95,29.96,7.0,ENE,4.6,-,N/A,,Overcast,60,2013-07-08 16:47:00
1:14 PM,67.1,64.0,90,29.96,10.0,NE,6.9,-,N/A,,Overcast,50,2013-07-08 17:14:00
1:35 PM,66.2,63.9,92,29.97,7.0,ENE,8.1,-,N/A,,Overcast,70,2013-07-08 17:35:00
1:55 PM,65.3,63.5,94,29.96,5.0,ENE,8.1,-,N/A,,Overcast,70,2013-07-08 17:55:00
2:15 PM,64.6,63.9,98,29.96,2.5,ENE,6.9,-,N/A,Rain,Rain,70,2013-07-08 18:15:00
2:35 PM,64.4,63.9,98,29.96,2.5,ENE,6.9,-,N/A,Rain,Light Rain,70,2013-07-08 18:35:00
2:55 PM,64.0,63.9,99,29.96,2.5,ENE,8.1,-,N/A,,Light Drizzle,60,2013-07-08 18:55:00
3:15 PM,64.8,64.4,99,29.95,4.0,ENE,6.9,-,N/A,,Overcast,60,2013-07-08 19:15:00
3:35 PM,66.4,64.9,95,29.95,5.0,ENE,8.1,-,N/A,,Overcast,60,2013-07-08 19:35:00
3:52 PM,67.1,65.1,93,29.95,7.0,ENE,8.1,-,N/A,,Overcast,70,2013-07-08 19:52:00
4:15 PM,69.3,64.8,86,29.95,10.0,East,10.4,-,N/A,,Overcast,80,2013-07-08 20:15:00
4:35 PM,66.7,63.9,90,29.95,10.0,ENE,9.2,-,N/A,,Overcast,60,2013-07-08 20:35:00
4:55 PM,66.7,63.5,89,29.95,10.0,ENE,6.9,-,N/A,,Overcast,70,2013-07-08 20:55:00
5:15 PM,65.8,63.5,92,29.95,10.0,NE,9.2,-,N/A,,Overcast,50,2013-07-08 21:15:00
5:35 PM,65.3,63.1,93,29.96,10.0,ENE,6.9,-,N/A,,Overcast,70,2013-07-08 21:35:00
5:55 PM,64.9,62.6,92,29.96,10.0,NE,5.8,-,N/A,,Overcast,50,2013-07-08 21:55:00
6:14 PM,63.5,61.7,94,29.96,10.0,ENE,9.2,-,N/A,,Overcast,60,2013-07-08 22:14:00
6:35 PM,62.6,61.7,97,29.95,10.0,NE,8.1,-,N/A,,Overcast,50,2013-07-08 22:35:00
6:55 PM,62.6,61.7,97,29.96,10.0,NE,9.2,-,N/A,,Overcast,50,2013-07-08 22:55:00
7:15 PM,63.7,62.2,95,29.96,10.0,NE,8.1,-,N/A,,Overcast,50,2013-07-08 23:15:00
7:35 PM,63.3,61.9,95,29.96,7.0,NE,8.1,-,N/A,,Overcast,40,2013-07-08 23:35:00
7:54 PM,62.2,61.7,98,29.97,10.0,NE,5.8,-,N/A,,Overcast,50,2013-07-08 23:54:00
8:15 PM,63.0,62.1,97,29.97,10.0,ENE,6.9,-,N/A,,Overcast,70,2013-07-09 00:15:00
8:35 PM,62.6,61.9,97,29.97,10.0,ENE,8.1,-,N/A,,Overcast,70,2013-07-09 00:35:00
8:55 PM,62.1,61.7,99,29.98,7.0,East,6.9,-,N/A,,Overcast,80,2013-07-09 00:55:00
9:15 PM,61.9,61.3,98,29.97,7.0,ENE,5.8,-,N/A,,Overcast,70,2013-07-09 01:15:00
9:35 PM,61.7,61.2,98,29.98,5.0,ENE,5.8,-,N/A,,Overcast,70,2013-07-09 01:35:00
9:55 PM,61.2,61.0,99,29.98,5.0,ENE,5.8,-,N/A,,Overcast,70,2013-07-09 01:55:00
10:14 PM,61.5,61.2,99,29.99,5.0,ENE,5.8,-,N/A,,Overcast,70,2013-07-09 02:14:00
10:35 PM,61.7,61.3,99,30.00,5.0,ENE,4.6,-,N/A,,Overcast,70,2013-07-09 02:35:00
10:55 PM,61.3,61.2,99,29.99,4.0,ENE,5.8,-,N/A,,Overcast,70,2013-07-09 02:55:00
11:15 PM,61.7,61.7,100,30.00,4.0,ENE,5.8,-,N/A,,Overcast,70,2013-07-09 03:15:00
11:35 PM,61.7,61.7,100,30.00,3.0,ENE,4.6,-,N/A,,Overcast,70,2013-07-09 03:35:00
11:54 PM,61.7,61.7,100,30.00,3.0,ENE,4.6,-,N/A,,Overcast,70,2013-07-09 03:54:00